Location: Les Chemineaux
(47.3024°N, 1.5104°E)
Time: 19:58:10
(UTC+00:00)

USA 234 - Pass Details

Date: 19 May 2025
Orbit: 1097 x 1111 km, 123.0° (Epoch: 19 June)

Event Time Altitude Azimuth Distance (km) Brightness Sun altitude
Rises 20:49:10 0° 53° (NE) 3,926 6.1 -11.4°
Reaches altitude 10° 20:51:40 10° 55° (NE) 2,968 5.5 -11.7°
Maximum altitude 20:58:13 73° 141° (SE) 1,152 3.2 -12.4°
Drops below altitude 10° 21:04:46 10° 226° (SW) 2,965 5.5 -13.1°
Sets 21:07:16 0° 228° (SW) 3,922 6.1 -13.4°
